Home > Weather > Boké > Past weeks

Flag for Guinea Past Weather in Boké, Guinea — Yesterday and Last 2 Weeks

Now
75 °F

Heavy rain. Mostly cloudy.


Feels Like: 73 °F
Forecast: 72 / 78 °F
Wind: 9 mph from East

Location: Conakry / Gbessia

Current Time: Jul 25, 2016 at 6:19:42 AM

Latest Report: Jul 25, 2016 at 5:00 AM


Visibility: 1 mi

Pressure: 29.89 "Hg

Humidity: 100%

Dew Point: 75 °F

Location of BokéLocation

Past Weather in Boké — Graph

°F

Boké Temperature Yesterday

Maximum temperature yesterday: 86 °F (at 2:00 PM)
Minimum temperature yesterday: 73 °F (at 6:00 AM)
Average temperature yesterday: 80 °F

High & Low Weather Summary for the Past Weeks

 TemperatureHumidityPressure
High88 °F (Jul 11, 1:00 PM)100% (Jul 12, 10:00 PM)30.01 "Hg (Jul 12, 10:00 PM)
Low72 °F (Jul 13, 10:00 PM)59% (Jul 11, 2:00 PM)29.83 "Hg (Jul 16, 6:00 PM)
Average78 °F90%29.92 "Hg
* Reported Jul 10 10:00 AM — Jul 25 5:00 AM, Boké, Weather by CustomWeather, © 2016

Note: Actual official high and low records may vary slightly from our data, if they occured in-between our weather recording intervals... More about our weather records

Advertising

Boké Weather History for the Previous 24 Hours

Scroll right to see more
 ConditionsComfort  
Time TempWeatherWind HumidityBarometerVisibility
5:00 AM
Mon, Jul 25
75 °FHeavy rain. Mostly cloudy.9 mph100%29.89 "Hg1 mi
4:00 AM75 °FRain. Mostly cloudy.2 mph100%29.89 "Hg2 mi
3:00 AM75 °FRain. Mostly cloudy.9 mph100%29.89 "Hg1 mi
2:00 AM77 °FPassing clouds.No wind89%29.92 "HgN/A
1:00 AM77 °FLight rain. Passing clouds.No wind89%29.92 "Hg5 mi
12:00 AM77 °FLight rain. Passing clouds.5 mph94%29.95 "Hg5 mi
11:00 PM
Sun, Jul 24
77 °FPassing clouds.5 mph94%29.95 "HgN/A
9:00 PM79 °FLight rain. Passing clouds.No wind89%29.92 "Hg3 mi
8:00 PM79 °FLight rain. Passing clouds.7 mph89%29.89 "Hg3 mi
7:00 PM79 °FLight rain. Mostly cloudy.12 mph89%29.89 "Hg3 mi
6:00 PM81 °FMostly cloudy.9 mph84%29.89 "HgN/A
5:00 PM82 °FPartly sunny.9 mph79%29.89 "HgN/A
4:00 PM82 °FPartly sunny.9 mph79%29.89 "HgN/A
3:00 PM84 °FBroken clouds.9 mph74%29.89 "HgN/A
2:00 PM86 °FPartly sunny.12 mph70%29.92 "HgN/A
1:00 PM84 °FPartly sunny.12 mph79%29.92 "HgN/A
6:00 AM73 °FPassing clouds.No wind100%29.92 "HgN/A
Weather by CustomWeather, © 2016

See weather overviewHow to use our weather pages